K4IR Weather Reports


time (UTC)temp
C
wind
direction
speed
KPH
gust
KPH
rain 1hr
cm
rain 24hr
cm
rain mn
cm
humidity
%
barometer
mb
20260505111845 10 60 0.0 0.0 0.00 0.00 0.00 99 1017.9
20260505110842 10 60 0.0 0.0 0.00 0.00 0.00 98 1017.9
20260505101833 9 60 0.0 0.0 0.00 0.00 0.00 98 1017.3
20260505100830 9 60 0.0 0.0 0.00 0.00 0.00 98 1017.2
20260505095828 9 60 0.0 0.0 0.00 0.00 0.00 98 1017.0
20260505094827 9 60 0.0 0.0 0.00 0.00 0.00 98 1017.2
20260505093825 9 60 0.0 0.0 0.00 0.00 0.00 98 1017.0
20260505092820 9 60 0.0 0.0 0.00 0.00 0.00 98 1017.1
20260505091815 9 60 0.0 0.0 0.00 0.00 0.00 98 1016.6
20260505090811 9 60 0.0 0.0 0.00 0.00 0.00 98 1016.7
20260505085806 10 60 0.0 0.0 0.00 0.00 0.00 98 1016.7
20260505084801 10 60 0.0 0.0 0.00 0.00 0.00 98 1016.7
20260505083756 10 60 0.0 0.0 0.00 0.00 0.00 98 1016.6
20260505082756 10 60 0.0 0.0 0.00 0.00 0.00 98 1016.6
20260505081754 10 60 0.0 0.0 0.00 0.00 0.00 98 1016.6
20260505080754 10 60 0.0 0.0 0.00 0.00 0.00 98 1016.6
20260505075752 10 60 0.0 0.0 0.00 0.00 0.00 97 1016.6
20260505074746 10 60 0.0 0.0 0.00 0.00 0.00 97 1016.5
20260505073741 10 60 0.0 0.0 0.00 0.00 0.00 97 1016.4
20260505072741 10 60 0.0 0.0 0.00 0.00 0.00 97 1016.5
20260505071739 10 60 0.0 0.0 0.00 0.00 0.00 97 1016.8
20260505070734 10 60 0.0 0.0 0.00 0.00 0.00 97 1016.6
20260505065731 11 60 0.0 0.0 0.00 0.00 0.00 97 1016.7
20260505064731 11 60 0.0 0.0 0.00 0.00 0.00 97 1016.6
20260505063726 11 60 0.0 0.0 0.00 0.00 0.00 97 1016.5
20260505062724 11 60 0.0 0.0 0.00 0.00 0.00 96 1016.8
20260505061719 11 60 0.0 0.0 0.00 0.00 0.00 96 1017.0
20260505060714 11 60 0.0 0.0 0.00 0.00 0.00 96 1017.0
20260505055712 11 60 0.0 0.0 0.00 0.00 0.00 96 1017.1
20260505054712 11 60 0.0 0.0 0.00 0.00 0.00 95 1017.3
20260505053708 11 60 0.0 0.0 0.00 0.00 0.00 95 1017.4
20260505052707 11 60 0.0 0.0 0.00 0.00 0.00 95 1017.6
20260505051707 11 60 0.0 0.0 0.00 0.00 0.00 95 1017.6
20260505050703 12 60 0.0 0.0 0.00 0.00 0.00 95 1017.7
20260505041648 12 60 0.0 0.0 0.00 0.00 0.00 93 1017.8
20260505040648 12 60 0.0 0.0 0.00 0.00 0.00 93 1017.5
20260505035648 12 60 0.0 0.0 0.00 0.00 0.00 93 1017.5
20260505034646 12 60 0.0 0.0 0.00 0.00 0.00 92 1017.4
20260505033646 13 60 0.0 0.0 0.00 0.00 0.00 92 1017.6
20260505032642 13 60 0.0 0.0 0.00 0.00 0.00 91 1017.6
20260505031642 13 60 0.0 0.0 0.00 0.00 0.00 91 1017.7
20260505030640 13 60 0.0 0.0 0.00 0.00 0.00 91 1017.7
20260505025637 13 60 0.0 0.0 0.00 0.00 0.00 90 1017.7
20260505024633 13 60 0.0 0.0 0.00 0.00 0.00 90 1017.8
20260505023633 13 60 0.0 0.0 0.00 0.00 0.00 89 1017.9
20260505022628 13 60 0.0 0.0 0.00 0.00 0.00 89 1017.7
20260505021627 13 60 0.0 0.0 0.00 0.00 0.00 89 1017.7
20260505020626 13 60 0.0 0.0 0.00 0.00 0.00 88 1017.8
20260505015625 13 60 0.0 0.0 0.00 0.00 0.00 87 1017.6
20260505014624 13 60 0.0 0.0 0.00 0.00 0.00 86 1017.5
20260505013625 13 60 0.0 0.0 0.00 0.00 0.00 85 1017.5
20260505012620 14 60 0.0 0.0 0.00 0.00 0.00 85 1017.3
20260505011618 14 60 0.0 0.0 0.00 0.00 0.00 83 1017.4
20260505010616 15 60 0.0 0.0 0.00 0.00 0.00 81 1017.2
20260505005615 15 60 0.0 0.0 0.00 0.00 0.00 78 1017.0
20260505004615 15 60 0.0 0.0 0.00 0.00 0.00 76 1016.9
20260505003615 16 60 0.0 0.0 0.00 0.00 0.00 75 1017.0
20260505002614 16 60 0.0 0.0 0.00 0.00 0.00 73 1016.9
20260505001609 16 60 0.0 0.0 0.00 0.00 0.00 72 1016.7
20260505000609 17 60 0.0 0.0 0.00 0.00 0.00 70 1016.7
20260504235609 17 60 0.0 0.0 0.00 0.00 0.00 69 1017.0
20260504234609 18 61 0.0 0.0 0.00 0.00 0.00 65 1016.5
20260504233607 18 64 0.0 0.0 0.00 0.00 0.00 64 1016.6
20260504232607 19 78 1.6 1.6 0.00 0.00 0.00 63 1016.6
20260504231606 20 62 1.6 3.2 0.00 0.00 0.00 60 1016.4
20260504230604 20 100 1.6 4.8 0.00 0.00 0.00 60 1016.8
20260504225601 20 105 0.0 3.2 0.00 0.00 0.00 57 1016.5
20260504224600 20 76 1.6 4.8 0.00 0.00 0.00 56 1016.6
20260504223600 21 17 3.2 8.0 0.00 0.00 0.00 53 1016.5
20260504222559 21 61 6.4 9.7 0.00 0.00 0.00 52 1016.7
20260504221553 21 56 4.8 9.7 0.00 0.00 0.00 53 1016.4
20260504220552 22 8 4.8 9.7 0.00 0.00 0.00 52 1016.4
20260504215552 22 58 1.6 4.8 0.00 0.00 0.00 52 1016.5
20260504214550 22 120 1.6 8.0 0.00 0.00 0.00 51 1016.4
20260504213550 22 56 1.6 9.7 0.00 0.00 0.00 52 1016.5
20260504212548 22 50 4.8 12.9 0.00 0.00 0.00 48 1016.8
20260504211548 22 85 1.6 8.0 0.00 0.00 0.00 49 1016.5
20260504210548 22 86 1.6 12.9 0.00 0.00 0.00 50 1016.7
20260504205548 22 39 4.8 11.3 0.00 0.00 0.00 47 1016.6
20260504204544 23 45 3.2 8.0 0.00 0.00 0.00 47 1016.6
20260504203540 23 351 3.2 4.8 0.00 0.00 0.00 51 1016.7
20260504202539 22 336 4.8 8.0 0.00 0.00 0.00 51 1016.6
20260504201539 22 61 8.0 11.3 0.00 0.00 0.00 49 1016.9
20260504200538 23 356 4.8 9.7 0.00 0.00 0.00 50 1016.8
20260504195537 23 339 3.2 4.8 0.00 0.00 0.00 50 1017.0
20260504194537 23 29 8.0 9.7 0.00 0.00 0.00 48 1016.8
20260504193535 23 35 6.4 9.7 0.00 0.00 0.00 48 1017.0
20260504192531 23 42 4.8 11.3 0.00 0.00 0.00 49 1017.2
20260504191527 23 272 1.6 3.2 0.00 0.00 0.00 51 1017.5
20260504190525 23 50 1.6 11.3 0.00 0.00 0.00 51 1017.3
20260504185524 23 32 4.8 14.5 0.00 0.00 0.00 48 1017.4
20260504184521 23 243 4.8 11.3 0.00 0.00 0.00 44 1017.5
20260504183520 22 139 1.6 14.5 0.00 0.00 0.00 49 1017.7
20260504182520 22 261 4.8 8.0 0.00 0.00 0.00 47 1017.7
20260504181515 23 298 4.8 8.0 0.00 0.00 0.00 45 1017.8
20260504180512 24 7 3.2 9.7 0.00 0.00 0.00 48 1017.8
20260504175507 23 63 3.2 3.2 0.00 0.00 0.00 47 1017.8
20260504174502 24 67 3.2 9.7 0.00 0.00 0.00 47 1017.8
20260504173501 23 168 3.2 4.8 0.00 0.00 0.00 48 1017.7
20260504172500 23 322 4.8 8.0 0.00 0.00 0.00 44 1017.7
20260504171500 23 13 3.2 8.0 0.00 0.00 0.00 51 1017.8
20260504170459 23 58 1.6 4.8 0.00 0.00 0.00 48 1017.8
20260504150437 22 4 4.8 8.0 0.00 0.00 0.00 57 1018.1
20260504140429 20 80 1.6 1.6 0.00 0.00 0.00 62 1018.1
20260504130423 20 90 0.0 1.6 0.00 0.00 0.00 72 1018.6